スペースウォッチ彗星

366P/Spacewatch (2005)

English version
Home page
Updated on April 7, 2018

---------------------------------------------------------------------

・ プロフィール

符号 366P/2005 JN
発見日 2005年5月3日
発見光度 20.4等
発見者 Spacewatch program

・ 写真集

・ 軌道要素

Epoch 2005 July 9.0 TT = JDT 2453560.5
T 2005 June 20.10761 TT                                 MPCW
q   2.2762877            (2000.0)            P               Q
n   0.15070323     Peri.  153.56275     -0.70999469     +0.68902712
a   3.4972043      Node    70.79322     -0.67030062     -0.59793355
e   0.3491122      Incl.    8.85878     -0.21588104     -0.40953278
P   6.54
From 33 observations 2005 Apr. 4-2018 Mar. 21, mean residual 0".4.

・ 星図

・ 光度変化

        m1 = 14.0 + 5 logΔ + 10.0 log r

---------------------------------------------------------------------

軌道要素はM.P.E.C. 2018-F85に掲載されたものです。
星図は StellaNavigator Ver.2.0 for Windows (アストロアーツ 編著 / アスキー出版局刊) で作成したものです。
光度グラフはComet for Windowsで作成したものです。

---------------------------------------------------------------------

Copyright(C) Seiichi Yoshida (comet@aerith.net). All rights reserved.